• In Österreich
  • Länderverzeichnis
  • Für 7 Tage
  • Wassertemperatur
  • Satellitenkarten
  • Wetterkarte
  • News
  • Widgets
  • user-avatar
    Anmelden

    Stündliche Wetter Newcastle

    Heute, 16 Dezember, Samstag

    Zeit Temperatur Niederschläge Wind Luftdruck Luftfeuchtigkeit
    00:00 +21°C° 0,4 mm 2 m/S 759 mmHg 93%
    01:00 +21°C° 0,4 mm 2 m/S 759 mmHg 94%
    02:00 +21°C° 0,4 mm 3 m/S 759 mmHg 94%
    03:00 +21°C° 0,4 mm 3 m/S 759 mmHg 95%
    04:00 +21°C° 0 mm 5 m/S 759 mmHg 93%
    05:00 +22°C° 0 mm 4 m/S 759 mmHg 87%
    06:00 +23°C° 0 mm 4 m/S 759 mmHg 81%
    07:00 +25°C° 0 mm 3 m/S 759 mmHg 75%
    08:00 +29°C° 0 mm 3 m/S 759 mmHg 60%
    09:00 +34°C° 0 mm 3 m/S 759 mmHg 46%
    10:00 +37°C° 0 mm 3 m/S 759 mmHg 31%
    11:00 +40°C° 0 mm 4 m/S 759 mmHg 29%
    12:00 +41°C° 0 mm 4 m/S 758 mmHg 26%
    13:00 +42°C° 0 mm 5 m/S 758 mmHg 24%
    14:00 +40°C° 0 mm 5 m/S 758 mmHg 32%
    15:00 +36°C° 0 mm 6 m/S 757 mmHg 39%
    16:00 +33°C° 0 mm 6 m/S 757 mmHg 47%
    17:00 +32°C° 0 mm 6 m/S 757 mmHg 53%
    18:00 +30°C° 0 mm 6 m/S 758 mmHg 60%
    19:00 +29°C° 0 mm 6 m/S 758 mmHg 66%
    20:00 +28°C° 0 mm 6 m/S 759 mmHg 69%
    21:00 +27°C° 0 mm 6 m/S 759 mmHg 72%
    22:00 +27°C° 0 mm 6 m/S 759 mmHg 75%
    23:00 +26°C° 0 mm 5 m/S 759 mmHg 77%

    Morgen, 17 Dezember, Sonntag

    Zeit Temperatur Niederschläge Wind Luftdruck Luftfeuchtigkeit
    00:00 +26°C° 0 mm 4 m/S 759 mmHg 78%
    01:00 +25°C° 0 mm 4 m/S 759 mmHg 79%
    02:00 +24°C° 0 mm 3 m/S 759 mmHg 83%
    03:00 +24°C° 0 mm 3 m/S 759 mmHg 87%
    04:00 +22°C° 0 mm 3 m/S 759 mmHg 91%
    05:00 +24°C° 0 mm 2 m/S 759 mmHg 87%
    06:00 +25°C° 0 mm 2 m/S 760 mmHg 83%
    07:00 +26°C° 0 mm 2 m/S 760 mmHg 79%
    08:00 +28°C° 0 mm 2 m/S 760 mmHg 71%
    09:00 +31°C° 0 mm 2 m/S 760 mmHg 63%
    10:00 +34°C° 0 mm 2 m/S 760 mmHg 54%
    11:00 +35°C° 0 mm 2 m/S 760 mmHg 51%
    12:00 +36°C° 0 mm 3 m/S 760 mmHg 47%
    13:00 +37°C° 0 mm 3 m/S 759 mmHg 43%
    14:00 +36°C° 0 mm 4 m/S 759 mmHg 50%
    15:00 +34°C° 0 mm 4 m/S 758 mmHg 56%
    16:00 +32°C° 0 mm 5 m/S 758 mmHg 62%
    17:00 +29°C° 0,7 mm 4 m/S 758 mmHg 71%
    18:00 +27°C° 0,7 mm 4 m/S 759 mmHg 80%
    19:00 +25°C° 0,7 mm 3 m/S 759 mmHg 89%
    20:00 +25°C° 0,6 mm 4 m/S 760 mmHg 91%
    21:00 +23°C° 0,6 mm 4 m/S 760 mmHg 92%
    22:00 +23°C° 0,6 mm 4 m/S 760 mmHg 94%
    23:00 +22°C° 0 mm 4 m/S 760 mmHg 95%

    übermorgen, 18 Dezember, Montag

    Zeit Temperatur Niederschläge Wind Luftdruck Luftfeuchtigkeit
    00:00 +22°C° 0 mm 3 m/S 759 mmHg 96%
    01:00 +21°C° 0 mm 2 m/S 759 mmHg 97%
    02:00 +21°C° 0 mm 2 m/S 759 mmHg 97%
    03:00 +21°C° 0 mm 2 m/S 758 mmHg 98%
    04:00 +21°C° 0 mm 2 m/S 758 mmHg 98%
    05:00 +23°C° 0 mm 2 m/S 758 mmHg 94%
    06:00 +24°C° 0 mm 1 m/S 758 mmHg 91%
    07:00 +25°C° 0 mm 1 m/S 759 mmHg 87%
    08:00 +29°C° 0 mm 1 m/S 758 mmHg 73%
    09:00 +32°C° 0 mm 1 m/S 758 mmHg 58%
    10:00 +36°C° 0 mm 1 m/S 758 mmHg 44%
    11:00 +38°C° 0 mm 2 m/S 757 mmHg 39%
    12:00 +40°C° 0 mm 3 m/S 756 mmHg 34%
    13:00 +42°C° 0 mm 4 m/S 756 mmHg 28%
    14:00 +41°C° 0,1 mm 4 m/S 755 mmHg 32%
    15:00 +40°C° 0,1 mm 5 m/S 755 mmHg 37%
    16:00 +38°C° 0,1 mm 6 m/S 754 mmHg 41%
    17:00 +33°C° 2,2 mm 6 m/S 755 mmHg 57%
    18:00 +29°C° 2,2 mm 6 m/S 755 mmHg 74%
    19:00 +24°C° 2,2 mm 6 m/S 756 mmHg 91%
    20:00 +25°C° 0,1 mm 5 m/S 756 mmHg 91%
    21:00 +25°C° 0,1 mm 4 m/S 756 mmHg 92%
    22:00 +25°C° 0,1 mm 3 m/S 757 mmHg 92%
    23:00 +24°C° 0 mm 2 m/S 756 mmHg 92%

    19 Dezember, Dienstag

    Zeit Temperatur Niederschläge Wind Luftdruck Luftfeuchtigkeit
    00:00 +24°C° 0 mm 2 m/S 756 mmHg 92%
    01:00 +24°C° 0 mm 1 m/S 756 mmHg 92%
    02:00 +24°C° 0 mm 1 m/S 756 mmHg 93%
    03:00 +24°C° 0 mm 1 m/S 756 mmHg 93%
    04:00 +23°C° 0 mm 1 m/S 756 mmHg 94%
    05:00 +25°C° 0,1 mm 1 m/S 756 mmHg 88%
    06:00 +26°C° 0,1 mm 1 m/S 756 mmHg 83%
    07:00 +25°C° 0,1 mm 0 m/S 756 mmHg 78%
    08:00 +30°C° 0,1 mm 1 m/S 756 mmHg 66%
    09:00 +33°C° 0,1 mm 1 m/S 756 mmHg 55%
    10:00 +37°C° 0,1 mm 2 m/S 755 mmHg 43%
    11:00 +39°C° 0 mm 2 m/S 755 mmHg 37%
    12:00 +42°C° 0 mm 3 m/S 754 mmHg 30%
    13:00 +45°C° 0 mm 4 m/S 753 mmHg 24%
    14:00 +45°C° 0 mm 5 m/S 752 mmHg 25%
    15:00 +45°C° 0 mm 5 m/S 752 mmHg 25%
    16:00 +44°C° 0 mm 6 m/S 751 mmHg 25%
    17:00 +40°C° 0 mm 6 m/S 751 mmHg 33%
    18:00 +38°C° 0 mm 6 m/S 752 mmHg 41%
    19:00 +34°C° 0 mm 6 m/S 752 mmHg 49%
    20:00 +33°C° 0 mm 6 m/S 752 mmHg 51%
    21:00 +32°C° 0 mm 5 m/S 752 mmHg 54%
    22:00 +30°C° 0 mm 5 m/S 752 mmHg 56%
    23:00 +30°C° 0 mm 5 m/S 752 mmHg 54%

    20 Dezember, Mittwoch

    Zeit Temperatur Niederschläge Wind Luftdruck Luftfeuchtigkeit
    00:00 +29°C° 0 mm 5 m/S 751 mmHg 52%
    01:00 +29°C° 0 mm 5 m/S 751 mmHg 50%
    02:00 +30°C° 0 mm 4 m/S 751 mmHg 46%
    03:00 +30°C° 0 mm 4 m/S 751 mmHg 42%
    04:00 +32°C° 0 mm 4 m/S 751 mmHg 38%
    05:00 +33°C° 0 mm 3 m/S 752 mmHg 38%
    06:00 +33°C° 0 mm 3 m/S 753 mmHg 38%
    07:00 +34°C° 0 mm 3 m/S 754 mmHg 39%
    08:00 +36°C° 0 mm 3 m/S 754 mmHg 35%
    09:00 +38°C° 0 mm 3 m/S 754 mmHg 31%
    10:00 +42°C° 0 mm 3 m/S 754 mmHg 27%
    11:00 +40°C° 0 mm 3 m/S 753 mmHg 30%
    12:00 +39°C° 0 mm 3 m/S 753 mmHg 33%
    13:00 +38°C° 0 mm 3 m/S 753 mmHg 37%
    14:00 +37°C° 0,4 mm 3 m/S 753 mmHg 41%
    15:00 +36°C° 0,4 mm 4 m/S 753 mmHg 46%
    16:00 +35°C° 0,4 mm 4 m/S 753 mmHg 50%
    17:00 +32°C° 1,2 mm 4 m/S 754 mmHg 63%
    18:00 +28°C° 1,2 mm 3 m/S 755 mmHg 77%
    19:00 +25°C° 1,2 mm 3 m/S 756 mmHg 90%
    20:00 +25°C° 1,5 mm 3 m/S 757 mmHg 92%
    21:00 +25°C° 1,5 mm 3 m/S 758 mmHg 93%
    22:00 +24°C° 1,5 mm 3 m/S 758 mmHg 94%
    23:00 +24°C° 0 mm 2 m/S 758 mmHg 95%

    21 Dezember, Donnerstag

    Zeit Temperatur Niederschläge Wind Luftdruck Luftfeuchtigkeit
    00:00 +24°C° 0 mm 2 m/S 758 mmHg 95%
    01:00 +24°C° 0 mm 2 m/S 758 mmHg 96%
    02:00 +24°C° 0 mm 3 m/S 758 mmHg 96%
    03:00 +22°C° 0 mm 3 m/S 759 mmHg 96%
    04:00 +22°C° 0 mm 4 m/S 759 mmHg 96%
    05:00 +22°C° 0,4 mm 4 m/S 760 mmHg 96%
    06:00 +22°C° 0,4 mm 5 m/S 761 mmHg 96%
    07:00 +22°C° 0,4 mm 5 m/S 762 mmHg 96%
    08:00 +21°C° 1,6 mm 6 m/S 762 mmHg 95%
    09:00 +21°C° 1,6 mm 6 m/S 762 mmHg 95%
    10:00 +21°C° 1,6 mm 6 m/S 763 mmHg 95%
    11:00 +21°C° 1,8 mm 6 m/S 762 mmHg 93%
    12:00 +21°C° 1,8 mm 5 m/S 762 mmHg 92%
    13:00 +21°C° 1,8 mm 5 m/S 762 mmHg 90%
    14:00 +21°C° 0,2 mm 5 m/S 762 mmHg 89%
    15:00 +21°C° 0,2 mm 4 m/S 762 mmHg 89%
    16:00 +22°C° 0,2 mm 4 m/S 762 mmHg 88%
    17:00 +21°C° 0,1 mm 4 m/S 762 mmHg 89%
    18:00 +21°C° 0,1 mm 3 m/S 763 mmHg 90%
    19:00 +21°C° 0,1 mm 3 m/S 763 mmHg 90%
    20:00 +20°C° 0 mm 3 m/S 763 mmHg 92%
    21:00 +20°C° 0 mm 3 m/S 763 mmHg 94%
    22:00 +19°C° 0 mm 3 m/S 763 mmHg 95%
    23:00 +19°C° 0 mm 3 m/S 763 mmHg 96%
    Mehr zeigen